This demonstration page uses our WeatherBlox Daily Observations layout. Learn more.

Left ArrowRight Arrow

Hourly Observations for March 3, 2019

Temp ( °F °C ) Dew Point ( °F °C ) Humidity (%) Winds ( mph kmh ) Pressure ( in mb ) Visibility ( mi km ) Precip ( " mm )
12:52 am 00:52 Windy with Snow Likely 7 -13.9 1 -17.2 76 76 NNW 23 37 30.52 1034 2 3 0.00 0.03
1:33 am 01:33 Cloudy with Blowing Snow 6 -14.4 0 -17.8 76 76 NNW 22 35 30.58 1036 3 5 0.00 0.03
1:52 am 01:52 Cloudy with Blowing Snow 5 -15 -1 -18.3 76 76 NNW 24 39 30.54 1034 3 5 0.00 0.03
2:52 am 02:52 Cloudy with Blowing Snow 3 -16.1 -3 -19.4 76 76 NNW 26 43 30.54 1034 3 5 0.00 0.00
3:52 am 03:52 Cloudy with Blowing Snow 2 -16.7 -6 -21.1 69 69 NNW 21 33 30.56 1035 5 8 0.00 0.00
4:52 am 04:52 Mostly Cloudy with Blowing Snow 0 -17.8 -8 -22.2 69 69 NNW 25 41 30.57 1035 5 8 0.00 0.00
5:52 am 05:52 Mostly Cloudy -1 -18.3 -9 -22.8 68 68 NNW 18 30 30.58 1036 7 11 0.00 0.00
6:52 am 06:52 Mostly Cloudy -2 -18.9 -11 -23.9 65 65 NNW 18 30 30.59 1036 10 16 0.00 0.00
7:52 am 07:52 Mostly Cloudy -2 -18.9 -13 -25 59 59 NNW 20 31 30.60 1036 10 16 0.00 0.00
8:52 am 08:52 Partly Cloudy -2 -18.9 -12 -24.4 62 62 N 17 28 30.63 1037 10 16 0.00 0.00
9:52 am 09:52 Partly Cloudy -1 -18.3 -11 -23.9 62 62 N 15 24 30.63 1037 10 16 0.00 0.00
10:52 am 10:52 Mostly Cloudy 1 -17.2 -11 -23.9 56 56 NNW 14 22 30.63 1037 10 16 0.00 0.00
11:52 am 11:52 Mostly Cloudy 2 -16.7 -12 -24.4 52 52 NNW 15 24 30.61 1037 10 16 0.00 0.00
12:52 pm 12:52 Partly Cloudy 3 -16.1 -10 -23.3 54 54 WNW 13 20 30.60 1036 10 16 0.00 0.00
1:52 pm 13:52 Mostly Sunny 3 -16.1 -10 -23.3 54 54 WNW 17 28 30.58 1036 10 16 0.00 0.00
2:52 pm 14:52 Mostly Sunny 4 -15.6 -9 -22.8 54 54 NW 16 26 30.57 1035 10 16 0.00 0.00
3:52 pm 15:52 Mostly Sunny 5 -15 -9 -22.8 52 52 NW 18 30 30.55 1035 10 16 0.00 0.00
4:52 pm 16:52 Mostly Sunny 5 -15 -9 -22.8 52 52 NW 16 26 30.54 1034 10 16 0.00 0.00
5:52 pm 17:52 Mostly Sunny 3 -16.1 -10 -23.3 54 54 NW 15 24 30.53 1034 10 16 0.00 0.00
6:52 pm 18:52 Mostly Clear 3 -16.1 -10 -23.3 54 54 WNW 12 19 30.54 1034 10 16 0.00 0.00
7:52 pm 19:52 Clear 2 -16.7 -11 -23.9 54 54 WNW 10 17 30.54 1034 10 16 0.00 0.00
8:52 pm 20:52 Clear 1 -17.2 -11 -23.9 56 56 WNW 9 15 30.54 1034 10 16 0.00 0.00
9:52 pm 21:52 Clear -3 -19.4 -12 -24.4 65 65 NNW 10 17 30.55 1035 10 16 0.00 0.00
10:52 pm 22:52 Clear -1 -18.3 -11 -23.9 62 62 WNW 10 17 30.53 1034 10 16 0.00 0.00
11:52 pm 23:52 Clear -2 -18.9 -12 -24.4 62 62 WNW 10 17 30.52 1034 10 16 0.00 0.00

Powered by AerisWeather